Погода в Боао

Китай     19°11′00″N   110°32′44″E
темп.,
°C
ветер,
м/с
пор.,
м/с
влажн.,
%
обл.,
%
осадки,
мм/ч
давл.,
гПа
погр.,
м
16 июня, ср
ср1623:00+27ю511781 0.0 1004400
02:00+27ю411844 0.0 1003415
05:00+26ю410835 0.0 1004395
08:00+29ю5107537 0.0 1005671
11:00+33ю5754100 0.0 10051466
14:00+36ююв564718 0.0 10031721
17:00+32ююв796536 0.0 1002593
20:00+30ю610665 0.0 1004338
17 июня, чт
чт1723:00+28ююз511825 0.1 1006455
02:00+27ююз378917 0.6 1006239
05:00+26ююз378923 0.0 1005175
08:00+29ю36745 0.0 1006336
11:00+35ююз464956 0.0 10061530
14:00+35ююв6550100 0.0 10041118
17:00+32ююв7106663 0.0 1004557
20:00+29ю611728 0.0 1005385
18 июня, пт
пт1823:00+28ююз4108592 0.1 1007411
02:00+27ююз378964 0.1 1006213
05:00+26ююз23915 0.1 100673
08:00+29ююз36725 0.1 1007365
11:00+35ю46475 0.0 10061493
14:00+36ююв66495 0.0 10041223
17:00+32ююв796518 0.0 1003528
20:00+28ююв36792 0.0 1004158
19 июня, сб
сб1923:00+27сз238694 0.0 100643
02:00+26ююз22845 0.0 100443
05:00+26ююз37855 0.0 1004185
08:00+30ююз48715 0.0 1005470
11:00+35юз35477 0.0 10041608
14:00+37ююв354399 0.0 10011938
17:00+36ю3547100 0.0 1000886
20:00+30юз2359100 0.0 100165
20 июня, вс
вс2023:00+28зюз1173100 0.0 100314
02:00+27ю3882100 0.0 1002207
05:00+27ю3786100 0.0 1001168
08:00+30ю51072100 0.0 1002728
11:00+35ююз454792 0.0 10011383
14:00+38св1440100 0.0 9982129
17:00+35в4553100 0.0 997369
20:00+32зсз1260100 0.1 99840